FW7748 Weather Reports


time (UTC)temp
F
wind
direction
speed
knots
gust
knots
rain 1hr
in
rain 24hr
in
rain mn
in
humidity
%
barometer
mb
20260506202038 61 5 0.0 3.5 0.00 0.00 0.00 74 1006.2
20260506201530 61 5 0.0 5.2 0.00 0.00 0.00 74 1006.2
20260506201030 61 5 0.0 1.7 0.00 0.00 0.00 74 1006.2
20260506200519 61 5 0.0 2.6 0.00 0.00 0.00 74 1006.3
20260506200024 61 5 0.0 3.5 0.00 0.00 0.00 74 1006.2
20260506195510 61 5 0.9 4.3 0.00 0.00 0.00 74 1006.2
20260506195010 61 5 0.0 4.3 0.00 0.00 0.00 74 1006.3
20260506194502 61 5 0.0 3.5 0.00 0.00 0.00 74 1006.3
20260506194101 61 5 0.0 3.5 0.00 0.00 0.00 74 1006.3
20260506193553 61 5 0.0 3.5 0.00 0.00 0.00 74 1006.3
20260506193051 61 5 0.0 4.3 0.00 0.00 0.00 74 1006.3
20260506192542 61 5 0.0 4.3 0.00 0.00 0.00 74 1006.3
20260506192044 61 5 0.0 4.3 0.00 0.00 0.00 74 1006.4
20260506191534 61 5 0.0 4.3 0.00 0.00 0.00 74 1006.4
20260506191034 60 5 0.0 3.5 0.00 0.00 0.00 74 1006.4
20260506190523 60 5 0.0 4.3 0.00 0.00 0.00 74 1006.5
20260506190035 60 5 0.9 4.3 0.00 0.00 0.00 74 1006.6
20260506185518 60 5 0.0 5.2 0.00 0.00 0.00 74 1006.7
20260506185018 60 5 0.9 6.1 0.00 0.00 0.00 74 1006.7
20260506184508 60 5 0.0 7.0 0.00 0.00 0.00 74 1006.7
20260506184009 60 5 0.0 1.7 0.00 0.00 0.00 74 1006.8
20260506183600 60 5 0.0 1.7 0.00 0.00 0.00 74 1006.9
20260506183111 60 5 0.0 2.6 0.00 0.00 0.00 74 1006.9
20260506182551 60 5 0.0 5.2 0.00 0.00 0.00 74 1007.0
20260506182051 60 5 0.0 5.2 0.00 0.00 0.00 74 1007.0
20260506181542 60 5 0.0 2.6 0.00 0.00 0.00 74 1007.0
20260506181044 60 5 0.0 2.6 0.00 0.00 0.00 74 1007.0
20260506180544 60 5 0.0 2.6 0.00 0.00 0.00 74 1007.0
20260506180045 60 5 0.0 3.5 0.00 0.00 0.00 74 1007.0
20260506175531 60 5 0.9 3.5 0.00 0.00 0.00 74 1007.1
20260506175033 60 5 0.0 0.9 0.00 0.00 0.00 73 1007.1
20260506174530 60 5 0.0 4.3 0.00 0.00 0.00 73 1007.1
20260506174030 60 5 0.9 4.3 0.00 0.00 0.00 73 1007.2
20260506173522 60 5 0.0 2.6 0.00 0.00 0.00 73 1007.2
20260506173019 60 5 0.0 2.6 0.00 0.00 0.00 73 1007.1
20260506172513 60 5 0.0 1.7 0.00 0.00 0.00 73 1007.0
20260506172014 60 5 0.0 2.6 0.00 0.00 0.00 73 1007.1
20260506171510 60 5 0.0 3.5 0.00 0.00 0.00 73 1007.1
20260506171007 60 5 0.0 4.3 0.00 0.00 0.00 73 1007.1
20260506170504 60 5 0.0 5.2 0.00 0.00 0.00 73 1007.2
20260506170005 60 5 0.9 5.2 0.00 0.00 0.00 73 1007.3
20260506165600 60 5 0.0 4.3 0.00 0.00 0.00 73 1007.2
20260506165056 60 5 0.0 3.5 0.00 0.00 0.00 73 1007.3
20260506164553 60 5 0.0 2.6 0.00 0.00 0.00 73 1007.2
20260506164054 60 5 0.0 1.7 0.00 0.00 0.00 73 1007.2
20260506163554 60 5 0.0 0.9 0.00 0.00 0.00 73 1007.2
20260506163109 60 5 0.0 4.3 0.00 0.00 0.00 73 1007.3
20260506162542 60 5 0.0 4.3 0.00 0.00 0.00 73 1007.3
20260506162040 60 5 0.0 1.7 0.00 0.00 0.00 73 1007.3
20260506161530 60 5 0.0 2.6 0.00 0.00 0.00 73 1007.2
20260506161030 60 5 0.0 2.6 0.00 0.00 0.00 73 1007.2
20260506160520 60 5 0.0 4.3 0.00 0.00 0.00 73 1007.2
20260506160021 60 5 0.0 4.3 0.00 0.00 0.00 73 1007.3
20260506155512 60 5 0.0 3.5 0.00 0.00 0.00 73 1007.3
20260506155014 60 5 0.9 3.5 0.00 0.00 0.00 73 1007.3
20260506154526 60 5 0.9 3.5 0.00 0.00 0.00 73 1007.2
20260506154008 60 5 0.0 3.5 0.00 0.00 0.00 73 1007.1
20260506153601 60 5 0.0 3.5 0.00 0.00 0.00 72 1007.4
20260506153121 60 5 0.0 1.7 0.00 0.00 0.00 72 1007.7
20260506152546 60 5 0.0 2.6 0.00 0.00 0.00 72 1007.9
20260506152048 60 5 0.0 3.5 0.00 0.00 0.00 72 1008.2
20260506151542 60 5 0.9 5.2 0.00 0.00 0.00 72 1008.2
20260506151026 60 5 0.0 5.2 0.00 0.00 0.00 72 1008.3
20260506150519 61 5 0.0 4.3 0.00 0.00 0.00 72 1008.1
20260506150016 61 5 0.9 4.3 0.00 0.00 0.00 72 1008.1
20260506145511 61 5 0.0 2.6 0.00 0.00 0.00 72 1007.9
20260506145010 61 5 0.0 2.6 0.00 0.00 0.00 72 1007.8
20260506144605 61 5 0.0 0.9 0.00 0.00 0.00 72 1007.8
20260506144054 61 5 0.0 0.9 0.00 0.00 0.00 72 1008.0
20260506144001 61 5 0.0 0.9 0.00 0.00 0.00 72 1008.0
20260506143556 61 5 0.0 0.9 0.00 0.00 0.00 72 1007.8
20260506143047 61 5 0.0 2.6 0.00 0.00 0.00 71 1007.7
20260506142547 61 5 0.0 2.6 0.00 0.00 0.00 71 1007.8
20260506142036 61 5 0.0 0.0 0.00 0.00 0.00 71 1008.0
20260506141539 61 5 0.0 0.0 0.00 0.00 0.00 71 1008.3
20260506141029 61 5 0.0 0.0 0.00 0.00 0.00 71 1008.3
20260506140526 61 5 0.0 0.0 0.00 0.00 0.00 71 1008.2
20260506140029 61 5 0.0 2.6 0.00 0.00 0.00 70 1008.1
20260506135519 61 5 0.0 2.6 0.00 0.00 0.00 70 1008.1
20260506135008 61 5 0.0 1.7 0.00 0.00 0.00 70 1008.1
20260506134512 61 5 0.0 2.6 0.00 0.00 0.00 70 1008.0
20260506134011 61 5 0.0 2.6 0.00 0.00 0.00 70 1008.0
20260506133508 61 5 0.0 2.6 0.00 0.00 0.00 69 1008.2
20260506133004 61 5 0.0 3.5 0.00 0.00 0.00 69 1008.2
20260506132510 61 5 0.9 4.3 0.00 0.00 0.00 68 1008.3
20260506132002 61 5 0.0 4.3 0.00 0.00 0.00 68 1008.4
20260506131504 61 5 0.0 2.6 0.00 0.00 0.00 68 1008.4
20260506131012 62 5 0.0 6.1 0.00 0.00 0.00 68 1008.4
20260506130510 62 5 0.9 6.1 0.00 0.00 0.00 68 1008.3
20260506130058 62 5 0.0 5.2 0.00 0.00 0.00 67 1008.4
20260506125557 62 5 0.0 6.1 0.00 0.00 0.00 67 1008.4
20260506125048 62 5 0.9 5.2 0.00 0.00 0.00 67 1008.5
20260506124548 63 5 0.0 3.5 0.00 0.00 0.00 67 1008.4
20260506124044 63 5 0.9 3.5 0.00 0.00 0.00 67 1008.4
20260506123542 63 5 0.0 2.6 0.00 0.00 0.00 67 1008.4
20260506123034 63 5 0.0 4.3 0.00 0.00 0.00 67 1008.2
20260506122531 63 5 0.0 4.3 0.00 0.00 0.00 67 1008.2
20260506122024 64 5 0.9 4.3 0.00 0.00 0.00 66 1008.2
20260506121527 64 5 0.9 4.3 0.00 0.00 0.00 66 1008.1
20260506121020 64 5 0.9 5.2 0.00 0.00 0.00 66 1008.0
20260506120520 64 5 0.0 3.5 0.00 0.00 0.00 66 1007.9
20260506120012 64 5 0.0 3.5 0.00 0.00 0.00 66 1007.9
20260506115510 64 5 0.0 2.6 0.00 0.00 0.00 66 1007.9
20260506115002 64 5 0.0 3.5 0.00 0.00 0.00 66 1007.9
20260506114602 64 5 0.0 7.0 0.00 0.00 0.00 66 1008.0
20260506114058 63 5 1.7 7.0 0.00 0.00 0.00 66 1008.0
20260506113600 63 5 0.0 3.5 0.00 0.00 0.00 67 1007.9
20260506113050 63 5 0.9 3.5 0.00 0.00 0.00 67 1007.9
20260506112554 63 5 0.0 6.1 0.00 0.00 0.00 67 1007.9
20260506112054 62 360 0.0 6.1 0.00 0.00 0.00 67 1008.0
20260506111554 62 5 0.0 3.5 0.00 0.00 0.00 67 1008.0
20260506111044 61 5 0.0 0.0 0.00 0.00 0.00 67 1008.0
20260506110544 61 5 0.0 0.0 0.00 0.00 0.00 68 1008.0
20260506110040 60 5 0.0 1.7 0.00 0.00 0.00 68 1008.0
20260506105534 60 5 0.0 1.7 0.00 0.00 0.00 68 1007.8
20260506105025 59 5 0.0 1.7 0.00 0.00 0.00 68 1007.7
20260506104526 58 5 0.0 1.7 0.00 0.00 0.00 68 1007.6
20260506104021 58 5 0.0 0.9 0.00 0.00 0.00 68 1007.6
20260506103514 58 5 0.0 0.9 0.00 0.00 0.00 68 1007.4
20260506103004 57 5 0.0 0.9 0.00 0.00 0.00 68 1007.4
20260506102504 57 5 0.0 0.0 0.00 0.00 0.00 69 1007.5
20260506102100 57 5 0.0 0.0 0.00 0.00 0.00 69 1007.4
20260506101629 57 5 0.0 0.0 0.00 0.00 0.00 69 1007.4
20260506101054 57 5 0.0 0.0 0.00 0.00 0.00 68 1007.3
20260506100552 57 5 0.0 0.0 0.00 0.00 0.00 68 1007.4
20260506100044 57 5 0.0 0.0 0.00 0.00 0.00 68 1007.4
20260506095542 57 5 0.0 0.0 0.00 0.00 0.00 68 1007.5
20260506095038 57 5 0.0 0.0 0.00 0.00 0.00 68 1007.5
20260506094538 57 5 0.0 0.0 0.00 0.00 0.00 68 1007.6
20260506094028 57 5 0.0 0.0 0.00 0.00 0.00 68 1007.7
20260506093532 57 5 0.0 0.0 0.00 0.00 0.00 68 1007.7
20260506093026 57 5 0.0 0.0 0.00 0.00 0.00 68 1007.6
20260506092524 57 5 0.0 0.0 0.00 0.00 0.00 68 1007.5
20260506092016 57 5 0.0 0.0 0.00 0.00 0.00 68 1007.6
20260506091514 57 5 0.0 0.0 0.00 0.00 0.00 68 1007.6
20260506091010 57 5 0.0 0.0 0.00 0.00 0.00 68 1007.7
20260506090504 57 5 0.0 0.0 0.00 0.00 0.00 68 1007.6
20260506090110 56 5 0.0 0.0 0.00 0.00 0.00 68 1007.7
20260506085558 56 5 0.0 0.0 0.00 0.00 0.00 68 1007.6
20260506085049 56 5 0.0 0.0 0.00 0.00 0.00 68 1007.6
20260506084556 56 5 0.0 0.0 0.00 0.00 0.00 68 1007.7
20260506084038 56 5 0.0 0.0 0.00 0.00 0.00 68 1007.8
20260506083542 56 5 0.0 0.0 0.00 0.00 0.00 68 1007.8
20260506083033 56 5 0.0 0.0 0.00 0.00 0.00 68 1007.8
20260506082533 56 5 0.0 0.0 0.00 0.00 0.00 68 1007.8
20260506082026 56 5 0.0 0.0 0.00 0.00 0.00 68 1007.8
20260506081526 56 5 0.0 0.0 0.00 0.00 0.00 67 1007.8
20260506081018 56 5 0.0 0.0 0.00 0.00 0.00 67 1007.8
20260506080516 57 5 0.0 0.0 0.00 0.00 0.00 67 1007.7
20260506073034 57 5 0.0 0.0 0.00 0.00 0.00 67 1007.9
20260506072536 57 5 0.0 0.0 0.00 0.00 0.00 67 1008.0
20260506072034 57 5 0.0 0.0 0.00 0.00 0.00 67 1008.0
20260506071534 57 5 0.0 0.0 0.00 0.00 0.00 67 1008.1
20260506071035 58 5 0.0 0.0 0.00 0.00 0.00 67 1008.1
20260506070535 58 5 0.0 0.0 0.00 0.00 0.00 66 1008.1
20260506062516 58 5 0.0 0.0 0.00 0.00 0.00 66 1008.4
20260506062012 58 5 0.0 0.0 0.00 0.00 0.00 67 1008.5
20260506061602 58 5 0.0 0.0 0.00 0.00 0.00 66 1008.5
20260506061003 58 5 0.0 0.0 0.00 0.00 0.00 66 1008.5
20260506060555 58 5 0.0 0.0 0.00 0.00 0.00 66 1008.6
20260506051012 62 5 0.0 0.0 0.00 0.00 0.00 63 1008.9
20260506050504 62 5 0.0 0.0 0.00 0.00 0.00 63 1008.9
20260506045058 62 5 0.0 0.0 0.00 0.00 0.00 63 1008.9
20260506044550 62 5 0.0 0.0 0.00 0.00 0.00 63 1009.0
20260506044048 62 5 0.0 0.0 0.00 0.00 0.00 63 1009.0
20260506043544 63 5 0.0 0.0 0.00 0.00 0.00 62 1009.0
20260506043042 63 5 0.0 0.0 0.00 0.00 0.00 61 1009.0
20260506042540 64 5 0.0 0.0 0.00 0.00 0.00 60 1008.9
20260506042042 64 5 0.0 0.0 0.00 0.00 0.00 60 1008.9
20260506041551 64 5 0.0 0.0 0.00 0.00 0.00 60 1008.9
20260506041034 64 5 0.0 0.0 0.00 0.00 0.00 60 1009.0
20260506040524 64 5 0.0 0.0 0.00 0.00 0.00 60 1009.0
20260506040032 65 5 0.0 0.0 0.00 0.00 0.00 60 1009.0
20260506035516 65 5 0.0 0.0 0.00 0.00 0.00 59 1009.0
20260506035012 65 5 0.0 0.0 0.00 0.00 0.00 59 1008.9
20260506034503 66 5 0.0 0.0 0.00 0.00 0.00 58 1008.9
20260506034004 66 5 0.0 0.0 0.00 0.00 0.00 58 1008.9
20260506033600 66 5 0.0 0.0 0.00 0.00 0.00 57 1008.9
20260506033058 66 5 0.0 0.0 0.00 0.00 0.00 57 1008.9
20260506032550 67 5 0.0 0.0 0.00 0.00 0.00 56 1008.9
20260506032048 67 5 0.0 0.9 0.00 0.00 0.00 56 1008.9
20260506031541 67 5 0.0 0.9 0.00 0.00 0.00 56 1008.8
20260506031037 68 5 0.0 0.0 0.00 0.00 0.00 55 1008.9
20260506030531 68 5 0.0 0.0 0.00 0.00 0.00 55 1008.9
20260506030028 68 5 0.0 0.9 0.00 0.00 0.00 54 1008.8
20260506025529 69 5 0.0 3.5 0.00 0.00 0.00 54 1008.8
20260506025024 69 5 0.0 2.6 0.00 0.00 0.00 54 1008.8
20260506024519 69 5 0.0 3.5 0.00 0.00 0.00 53 1008.8
20260506024016 69 5 0.0 1.7 0.00 0.00 0.00 53 1008.9
20260506023509 69 5 0.0 2.6 0.00 0.00 0.00 53 1008.9
20260506023011 69 5 0.0 2.6 0.00 0.00 0.00 53 1008.9
20260506022502 69 5 0.0 2.6 0.00 0.00 0.00 53 1008.8
20260506022105 69 5 0.0 5.2 0.00 0.00 0.00 53 1008.9
20260506021554 70 5 0.0 5.2 0.00 0.00 0.00 53 1008.9
20260506021058 70 5 0.0 3.5 0.00 0.00 0.00 52 1008.9
20260506020548 70 5 0.0 0.9 0.00 0.00 0.00 52 1008.9
20260506020053 70 5 0.0 1.7 0.00 0.00 0.00 51 1008.9
20260506015540 70 5 0.0 1.7 0.00 0.00 0.00 51 1008.9
20260506015040 70 5 0.0 4.3 0.00 0.00 0.00 50 1008.8
20260506014532 71 5 0.9 4.3 0.00 0.00 0.00 50 1008.8
20260506014034 71 5 0.0 3.5 0.00 0.00 0.00 50 1008.8
20260506013528 71 5 0.0 1.7 0.00 0.00 0.00 48 1008.8
20260506013038 71 5 0.0 1.7 0.00 0.00 0.00 48 1008.7
20260506012516 72 5 0.0 4.3 0.00 0.00 0.00 46 1008.6
20260506012017 72 5 0.0 4.3 0.00 0.00 0.00 46 1008.6
20260506011522 72 5 0.0 5.2 0.00 0.00 0.00 47 1008.4
20260506011010 72 5 0.9 5.2 0.00 0.00 0.00 46 1008.3
20260506010504 72 5 0.0 2.6 0.00 0.00 0.00 46 1008.2
20260506010008 72 5 0.0 2.6 0.00 0.00 0.00 46 1008.2
20260506005556 73 5 0.0 2.6 0.00 0.00 0.00 46 1008.1
20260506005056 73 5 0.0 2.6 0.00 0.00 0.00 46 1008.0
20260506004546 73 5 0.0 4.3 0.00 0.00 0.00 46 1007.9
20260506004046 73 5 0.0 3.5 0.00 0.00 0.00 47 1007.9
20260506003536 73 5 0.0 6.1 0.00 0.00 0.00 46 1007.8
20260506003036 73 5 0.9 6.1 0.00 0.00 0.00 47 1007.8
20260506002532 73 5 0.0 4.3 0.00 0.00 0.00 46 1007.8
20260506002030 73 5 0.0 4.3 0.00 0.00 0.00 46 1007.8
20260506001522 73 5 0.0 4.3 0.00 0.00 0.00 45 1007.7
20260506001020 73 5 0.9 3.5 0.00 0.00 0.00 45 1007.6
20260506000512 73 5 0.0 2.6 0.00 0.00 0.00 46 1007.6
20260506000010 74 5 0.0 2.6 0.00 0.00 0.00 44 1007.5
20260505235503 74 5 0.0 1.7 0.00 0.00 0.00 44 1007.5
20260505235002 74 5 0.0 7.0 0.00 0.00 0.00 43 1007.5
20260505234555 75 5 0.0 7.0 0.00 0.00 0.00 43 1007.5
20260505234102 75 5 0.9 3.5 0.00 0.00 0.00 43 1007.5
20260505233554 75 5 0.0 5.2 0.00 0.00 0.00 42 1007.3
20260505233058 75 5 0.0 5.2 0.00 0.00 0.00 42 1007.3
20260505232554 76 5 0.0 7.0 0.00 0.00 0.00 41 1007.2
20260505232100 76 5 0.0 4.3 0.00 0.00 0.00 41 1007.3
20260505231550 76 5 0.0 4.3 0.00 0.00 0.00 41 1007.2
20260505231055 76 5 0.0 4.3 0.00 0.00 0.00 41 1007.3
20260505230546 76 5 0.0 3.5 0.00 0.00 0.00 41 1007.2
20260505230118 76 5 0.0 2.6 0.00 0.00 0.00 41 1007.2
20260505225543 77 5 0.0 8.7 0.00 0.00 0.00 42 1007.2
20260505225035 77 5 1.7 6.1 0.00 0.00 0.00 40 1007.1
20260505224520 77 5 0.0 6.1 0.00 0.00 0.00 41 1007.1
20260505224023 77 5 0.9 10.4 0.00 0.00 0.00 40 1007.0
20260505223514 78 5 1.7 10.4 0.00 0.00 0.00 40 1007.0
20260505223017 78 5 0.9 6.1 0.00 0.00 0.00 40 1007.1
20260505222508 78 5 0.0 7.0 0.00 0.00 0.00 40 1007.0
20260505222058 79 5 2.6 11.3 0.00 0.00 0.00 39 1007.1
20260505222008 79 5 2.6 11.3 0.00 0.00 0.00 39 1007.1
20260505221604 79 5 3.5 11.3 0.00 0.00 0.00 40 1006.9
20260505221047 79 5 0.9 5.2 0.00 0.00 0.00 40 1007.0
20260505220549 79 5 0.9 5.2 0.00 0.00 0.00 40 1006.9
20260505220052 79 5 0.9 5.2 0.00 0.00 0.00 39 1006.9
20260505215542 79 5 0.9 4.3 0.00 0.00 0.00 41 1006.8
20260505215030 79 5 0.0 7.0 0.00 0.00 0.00 41 1006.8
20260505214534 78 5 1.7 7.8 0.00 0.00 0.00 40 1006.9
20260505214027 79 5 2.6 8.7 0.00 0.00 0.00 41 1006.9
20260505213529 79 5 2.6 6.1 0.00 0.00 0.00 39 1006.9
20260505213021 79 5 1.7 7.0 0.00 0.00 0.00 39 1007.0
20260505212520 80 5 0.9 7.0 0.00 0.00 0.00 39 1006.9
20260505212016 80 5 0.9 5.2 0.00 0.00 0.00 39 1006.8
20260505211516 79 5 1.7 7.0 0.00 0.00 0.00 40 1006.8
20260505211008 79 5 1.7 10.4 0.00 0.00 0.00 40 1006.9
20260505210510 80 5 2.6 13.0 0.00 0.00 0.00 39 1007.0
20260505210006 80 5 1.7 13.0 0.00 0.00 0.00 39 1006.9
20260505205511 80 5 1.7 7.8 0.00 0.00 0.00 40 1007.0
20260505205104 80 5 0.0 9.6 0.00 0.00 0.00 40 1006.9
20260505204605 81 5 1.7 9.6 0.00 0.00 0.00 38 1006.8
20260505204052 81 5 1.7 11.3 0.00 0.00 0.00 38 1006.9
20260505203556 81 5 3.5 11.3 0.00 0.00 0.00 39 1006.8
20260505203046 81 5 2.6 8.7 0.00 0.00 0.00 39 1006.9
20260505202552 81 5 0.0 6.1 0.00 0.00 0.00 39 1006.9